K4OZS-11 Weather Reports


Display with metric or nautical units.
time (UTC)temp
F
wind
direction
speed
MPH
gust
MPH
rain 1hr
in
rain 24hr
in
rain mn
in
humidity
%
barometer
mb
20260510160419 86 284 0.0 3.0 113.58 0.00 0.00 62 1016.9
20260510155919 86 233 2.0 6.0 113.58 0.00 0.00 61 1016.9
20260510155420 85 249 1.0 4.0 113.58 0.00 0.00 64 1017.0
20260510154919 86 231 1.0 4.0 113.58 0.00 0.00 63 1017.0
20260510154419 86 215 2.0 5.0 113.58 0.00 0.00 61 1017.0
20260510153919 86 163 1.0 6.0 113.58 0.00 0.00 62 1016.9
20260510153419 86 194 1.0 4.0 113.58 0.00 0.00 62 1016.8
20260510152919 86 252 1.0 3.0 113.58 0.00 0.00 62 1017.0
20260510152419 86 207 1.0 4.0 113.58 0.00 0.00 62 1017.0
20260510151919 86 222 2.0 6.0 113.58 0.00 0.00 62 1016.9
20260510151419 86 232 3.0 7.0 113.58 0.00 0.00 63 1016.9
20260510150919 86 255 2.0 6.0 113.58 0.00 0.00 64 1016.9
20260510150419 85 242 2.0 4.0 113.58 0.00 0.00 65 1017.0
20260510145919 85 193 4.0 9.0 113.58 0.00 0.00 65 1016.9
20260510145419 85 193 3.0 7.0 113.58 0.00 0.00 65 1016.9
20260510144919 85 232 1.0 4.0 113.58 0.00 0.00 66 1016.9
20260510144419 85 210 3.0 7.0 113.58 0.00 0.00 66 1017.0
20260510143919 85 197 4.0 8.0 113.58 0.00 0.00 68 1016.9
20260510143419 85 233 1.0 6.0 113.58 0.00 0.00 68 1016.9
20260510142919 84 201 2.0 6.0 113.58 0.00 0.00 68 1016.9
20260510142419 84 198 2.0 6.0 113.58 0.00 0.00 70 1016.8
20260510141919 84 215 3.0 10.0 113.58 0.00 0.00 71 1016.8
20260510141419 83 208 5.0 10.0 113.58 0.00 0.00 70 1016.8
20260510140919 83 191 3.0 7.0 113.58 0.00 0.00 70 1016.8
20260510140419 83 204 6.0 10.0 113.58 0.00 0.00 72 1016.7
20260510135919 82 217 6.0 11.0 113.58 0.00 0.00 73 1016.8
20260510135419 82 210 6.0 12.0 113.58 0.00 0.00 73 1016.8
20260510134919 82 150 4.0 10.0 113.58 0.00 0.00 75 1016.8
20260510134420 81 195 4.0 8.0 113.58 0.00 0.00 76 1016.8
20260510133419 81 177 3.0 7.0 113.58 0.00 0.00 77 1016.8
20260510132920 80 214 4.0 10.0 113.58 0.00 0.00 78 1016.8
20260510132420 80 217 6.0 10.0 113.58 0.00 0.00 79 1016.6
20260510131921 80 222 5.0 10.0 113.58 0.00 0.00 81 1016.5
20260510131421 79 200 3.0 5.0 113.58 0.00 0.00 83 1016.5
20260510131059 79 152 3.0 6.0 113.58 0.00 0.00 84 1016.6
20260510130921 79 152 3.0 6.0 113.58 0.00 0.00 84 1016.6
20260510130650 78 184 2.0 5.0 113.58 0.00 0.00 86 1016.5
20260510130419 78 184 2.0 5.0 113.58 0.00 0.00 86 1016.5
20260510125919 78 207 3.0 6.0 113.58 0.00 0.00 87 1016.7
20260510125419 77 210 4.0 8.0 113.58 0.00 0.00 89 1016.7
20260510124919 77 215 4.0 7.0 113.58 0.00 0.00 90 1016.8
20260510124419 76 186 1.0 5.0 113.58 0.00 0.00 92 1016.8
20260510123920 76 200 3.0 5.0 113.58 0.00 0.00 93 1016.7
20260510123619 75 173 1.0 4.0 113.58 0.00 0.00 94 1016.5
20260510123419 75 173 1.0 4.0 113.58 0.00 0.00 94 1016.5
20260510122619 74 198 3.0 7.0 113.58 0.00 0.00 96 1016.3
20260510122418 74 198 3.0 7.0 113.58 0.00 0.00 96 1016.3
20260510121920 74 176 2.0 5.0 113.58 0.00 0.00 96 1016.3
20260510121419 73 184 2.0 5.0 113.58 0.00 0.00 97 1016.3
20260510120752 73 155 1.0 5.0 113.58 0.00 0.00 97 1016.1
20260510120420 73 155 1.0 5.0 113.58 0.00 0.00 97 1016.1
20260510115918 73 203 1.0 4.0 113.58 0.00 0.00 97 1016.0
20260510115420 72 240 1.0 4.0 113.58 0.00 0.00 97 1015.9
20260510114920 72 155 0.0 1.0 113.58 0.00 0.00 98 1015.8
20260510114420 72 195 1.0 3.0 113.58 0.00 0.00 98 1015.7
20260510112919 71 0 0.0 0.0 113.58 0.00 0.00 97 1015.5
20260510112420 71 0 0.0 0.0 113.58 0.00 0.00 97 1015.5
20260510111919 71 0 0.0 0.0 113.58 0.00 0.00 97 1015.4
20260510111420 71 0 0.0 0.0 113.58 0.00 0.00 97 1015.4
20260510110031 71 0 0.0 0.0 113.58 0.00 0.00 97 1015.1
20260510105919 71 0 0.0 0.0 113.58 0.00 0.00 97 1015.1
20260510105420 71 0 0.0 0.0 113.58 0.00 0.00 97 1015.1
20260510104419 71 0 0.0 0.0 113.58 0.00 0.00 97 1014.9
20260510103920 71 0 0.0 0.0 113.58 0.00 0.00 97 1014.9
20260510103421 71 0 0.0 0.0 113.58 0.00 0.00 97 1014.8
20260510102919 72 0 0.0 0.0 113.58 0.00 0.00 97 1014.7
20260510102546 72 0 0.0 0.0 113.58 0.00 0.00 96 1014.7
20260510102419 72 0 0.0 0.0 113.58 0.00 0.00 96 1014.7
20260510102047 72 0 0.0 0.0 113.58 0.00 0.00 96 1014.6
20260510101920 72 0 0.0 0.0 113.58 0.00 0.00 96 1014.6
20260510100920 72 0 0.0 0.0 113.58 0.00 0.00 96 1014.5
20260510095420 72 0 0.0 0.0 113.58 0.00 0.00 96 1014.3
20260510094419 73 0 0.0 0.0 113.58 0.00 0.00 96 1014.3
20260510093919 73 0 0.0 0.0 113.58 0.00 0.00 96 1014.3
20260510092919 73 167 1.0 2.0 113.58 0.00 0.00 96 1014.1
20260510092421 73 183 1.0 2.0 113.58 0.00 0.00 96 1014.1
20260510091420 73 177 1.0 4.0 113.58 0.00 0.00 95 1014.0
20260510090922 73 187 1.0 2.0 113.58 0.00 0.00 95 1014.0
20260510090420 73 153 0.0 1.0 113.58 0.00 0.00 95 1013.9
20260510085921 73 0 0.0 0.0 113.58 0.00 0.00 95 1013.9
20260510084420 74 191 0.0 2.0 113.58 0.00 0.00 95 1013.7
20260510084322 74 174 2.0 4.0 113.58 0.00 0.00 94 1013.6
20260510083920 74 174 2.0 4.0 113.58 0.00 0.00 94 1013.6
20260510083419 74 176 0.0 3.0 113.58 0.00 0.00 94 1013.5
20260510081921 74 204 1.0 3.0 113.58 0.00 0.00 94 1013.4
20260510080920 74 173 2.0 3.0 113.58 0.00 0.00 94 1013.5
20260510075920 74 190 1.0 5.0 113.58 0.00 0.00 94 1013.6
20260510075821 74 211 0.0 2.0 113.58 0.00 0.00 94 1013.6
20260510075620 74 211 0.0 2.0 113.58 0.00 0.00 94 1013.6
20260510075513 74 211 0.0 2.0 113.58 0.00 0.00 94 1013.6
20260510075421 74 211 0.0 2.0 113.58 0.00 0.00 94 1013.6
20260510075050 74 236 0.0 1.0 113.58 0.00 0.00 93 1013.5
20260510074919 74 236 0.0 1.0 113.58 0.00 0.00 93 1013.5
20260510074224 74 174 1.0 4.0 113.58 0.00 0.00 93 1013.5
20260510074037 74 174 1.0 4.0 113.58 0.00 0.00 93 1013.5
20260510073920 74 174 1.0 4.0 113.58 0.00 0.00 93 1013.5
20260510073420 74 205 1.0 4.0 113.58 0.00 0.00 94 1013.5
20260510073115 74 205 2.0 4.0 113.58 0.00 0.00 94 1013.5
20260510072921 74 205 2.0 4.0 113.58 0.00 0.00 94 1013.5
20260510072421 74 191 2.0 5.0 113.58 0.00 0.00 94 1013.4
20260510071921 74 183 2.0 5.0 113.58 0.00 0.00 93 1013.4
20260510071420 74 207 3.0 8.0 113.58 0.00 0.00 93 1013.4
20260510070920 74 187 2.0 8.0 113.58 0.00 0.00 93 1013.5
20260510070046 74 190 3.0 7.0 113.58 0.00 0.00 93 1013.7
20260510065920 74 190 3.0 7.0 113.58 0.00 0.00 93 1013.7
20260510065735 74 198 2.0 4.0 113.58 0.00 0.00 93 1013.6
20260510065422 74 198 2.0 4.0 113.58 0.00 0.00 93 1013.6
20260510065024 74 152 3.0 6.0 113.58 0.00 0.00 93 1013.6
20260510064919 74 152 3.0 6.0 113.58 0.00 0.00 93 1013.6
20260510064420 74 184 3.0 7.0 113.58 0.00 0.00 93 1013.7
20260510063920 74 198 2.0 7.0 113.58 0.00 0.00 93 1013.8
20260510063420 74 191 3.0 8.0 113.58 0.00 0.00 93 1013.9
20260510062920 74 212 2.0 8.0 113.58 0.00 0.00 92 1014.0
20260510062421 74 198 2.0 5.0 113.58 0.00 0.00 92 1014.0
20260510061920 74 195 1.0 4.0 113.58 0.00 0.00 92 1014.1
20260510061421 73 226 2.0 5.0 113.58 0.00 0.00 92 1014.3
20260510060920 73 195 2.0 4.0 113.58 0.00 0.00 92 1014.4
20260510060840 73 174 1.0 2.0 113.58 0.00 0.00 91 1014.4
20260510060419 73 174 1.0 2.0 113.58 0.00 0.00 91 1014.4
20260510055920 73 176 1.0 3.0 113.58 0.00 0.00 91 1014.5
20260510055420 73 181 0.0 2.0 113.58 0.00 0.00 91 1014.6
20260510055133 73 184 0.0 2.0 113.58 0.00 0.00 90 1014.7
20260510054920 73 184 0.0 2.0 113.58 0.00 0.00 90 1014.7
20260510054420 73 172 0.0 2.0 113.58 0.00 0.00 90 1014.7
20260510053925 73 188 1.0 2.0 113.58 0.00 0.00 91 1014.7
20260510053903 73 129 0.0 1.0 113.58 0.00 0.00 90 1015.1
20260510053901 73 0 0.0 0.0 113.58 0.00 0.00 90 1015.2
20260510053840 73 170 0.0 1.0 113.58 0.00 0.00 91 1015.0
20260510053808 73 129 0.0 1.0 113.58 0.00 0.00 90 1015.1
20260510053806 73 0 0.0 0.0 113.58 0.00 0.00 90 1015.2
20260510053746 73 170 0.0 1.0 113.58 0.00 0.00 91 1015.0
20260510053714 73 129 0.0 1.0 113.58 0.00 0.00 90 1015.1
20260510053712 73 0 0.0 0.0 113.58 0.00 0.00 90 1015.2
20260510053651 73 170 0.0 1.0 113.58 0.00 0.00 91 1015.0
20260510053619 73 129 0.0 1.0 113.58 0.00 0.00 90 1015.1
20260510053617 73 0 0.0 0.0 113.58 0.00 0.00 90 1015.2
20260510053556 73 170 0.0 1.0 113.58 0.00 0.00 91 1015.0
20260510053525 73 129 0.0 1.0 113.58 0.00 0.00 90 1015.1
20260510053522 73 0 0.0 0.0 113.58 0.00 0.00 90 1015.2
20260510053502 73 170 0.0 1.0 113.58 0.00 0.00 91 1015.0
20260510053430 73 129 0.0 1.0 113.58 0.00 0.00 90 1015.1
20260510053428 73 0 0.0 0.0 113.58 0.00 0.00 90 1015.2
20260510053420 73 179 0.0 2.0 113.58 0.00 0.00 91 1014.8
20260510053340 73 170 0.0 1.0 113.58 0.00 0.00 91 1015.0
20260510053335 73 129 0.0 1.0 113.58 0.00 0.00 90 1015.1
20260510053333 73 0 0.0 0.0 113.58 0.00 0.00 90 1015.2
20260510052921 73 170 0.0 1.0 113.58 0.00 0.00 91 1015.0
20260510052420 73 129 0.0 1.0 113.58 0.00 0.00 90 1015.1
20260510052013 73 0 0.0 0.0 113.58 0.00 0.00 90 1015.2
20260510051921 73 0 0.0 0.0 113.58 0.00 0.00 90 1015.2
20260510051421 73 0 0.0 0.0 113.58 0.00 0.00 90 1015.1
20260510050920 73 0 0.0 0.0 113.58 0.00 0.00 90 1015.2
20260510050420 73 0 0.0 0.0 113.58 0.00 0.00 90 1015.2
20260510045920 73 212 0.0 2.0 113.58 0.00 0.00 90 1015.3
20260510045421 73 0 0.0 0.0 113.58 0.00 0.00 89 1015.3
20260510044920 73 0 0.0 0.0 113.58 0.00 0.00 89 1015.4
20260510044421 73 0 0.0 0.0 113.58 0.00 0.00 88 1015.4
20260510043920 74 0 0.0 0.0 113.58 0.00 0.00 88 1015.5
20260510043420 74 0 0.0 0.0 113.58 0.00 0.00 87 1015.7
20260510042420 74 0 0.0 0.0 113.58 0.00 0.00 87 1015.7
20260510041920 74 0 0.0 0.0 113.58 0.00 0.00 87 1015.7
20260510041420 74 0 0.0 0.0 113.58 0.00 0.00 86 1015.7
20260510040920 74 0 0.0 0.0 113.58 0.00 0.00 86 1015.7
20260510040420 74 0 0.0 0.0 113.58 0.00 0.00 86 1015.8
20260510035920 75 0 0.0 0.0 113.58 0.00 0.00 85 1015.7
20260510035420 75 0 0.0 0.0 113.58 0.00 0.00 85 1015.7
20260510034920 75 0 0.0 0.0 113.58 0.00 0.00 85 1015.7
20260510033923 75 0 0.0 0.0 113.58 0.00 0.00 85 1015.8
20260510033420 75 149 0.0 1.0 113.58 0.00 0.00 85 1015.7
20260510032920 75 0 0.0 0.0 113.58 0.00 0.00 85 1015.7
20260510032420 75 0 0.0 0.0 113.58 0.00 0.00 85 1015.7
20260510031920 75 0 0.0 0.0 113.58 0.00 0.00 85 1015.6
20260510031420 75 0 0.0 0.0 113.58 0.00 0.00 85 1015.6
20260510030920 75 0 0.0 0.0 113.58 0.00 0.00 85 1015.6
20260510030420 75 0 0.0 0.0 113.58 0.00 0.00 85 1015.6
20260510025921 75 0 0.0 0.0 113.58 0.00 0.00 85 1015.5
20260510025420 75 0 0.0 0.0 113.58 0.00 0.00 85 1015.5
20260510024920 75 0 0.0 0.0 113.58 0.00 0.00 85 1015.5
20260510024420 75 0 0.0 0.0 113.58 0.00 0.00 85 1015.5
20260510023920 75 181 0.0 0.0 113.58 0.00 0.00 85 1015.3
20260510023420 75 229 0.0 1.0 113.58 0.00 0.00 85 1015.3
20260510022420 75 0 0.0 0.0 113.58 0.00 0.00 84 1015.1
20260510021920 75 0 0.0 0.0 113.58 0.00 0.00 84 1015.1
20260510020420 75 0 0.0 0.0 113.58 0.00 0.00 83 1014.8
20260510015920 75 0 0.0 0.0 113.58 0.00 0.00 83 1014.8
20260510015420 75 0 0.0 0.0 113.58 0.00 0.00 83 1014.8
20260510014920 75 0 0.0 0.0 113.58 0.00 0.00 83 1014.7
20260510014420 75 174 0.0 0.0 113.58 0.00 0.00 83 1014.7
20260510013920 75 0 0.0 0.0 113.58 0.00 0.00 83 1014.7
20260510013421 75 181 0.0 2.0 113.58 0.00 0.00 83 1014.7
20260510012920 75 4 0.0 2.0 113.58 0.00 0.00 83 1014.7
20260510012420 75 0 0.0 0.0 113.58 0.00 0.00 82 1014.5
20260510011920 75 0 0.0 0.0 113.58 0.00 0.00 82 1014.5
20260510011420 75 0 0.0 0.0 113.58 0.00 0.00 81 1014.6
20260510010920 75 0 0.0 0.0 113.58 0.00 0.00 81 1014.6
20260510010420 75 0 0.0 0.0 113.58 0.00 0.00 81 1014.5
20260510005920 75 34 2.0 5.0 113.58 0.00 0.00 81 1014.2
20260510005420 75 30 1.0 6.0 113.58 0.00 0.00 80 1014.1
20260510004921 75 336 0.0 2.0 113.58 0.00 0.00 80 1014.2
20260510004420 75 339 2.0 6.0 113.58 0.00 0.00 80 1014.2
20260510003920 75 308 2.0 7.0 113.58 0.00 0.00 80 1013.9
20260510003421 76 333 2.0 5.0 113.58 0.00 0.00 79 1013.8
20260510002920 76 333 2.0 5.0 113.58 0.00 0.00 79 1013.8
20260510002420 76 25 2.0 4.0 113.58 0.00 0.00 79 1013.8
20260510001920 76 339 4.0 8.0 113.58 0.00 0.00 79 1013.9
20260510001420 76 17 3.0 5.0 113.58 0.00 0.00 79 1013.9
20260510000920 76 10 3.0 10.0 113.58 0.00 0.00 78 1013.8
20260510000420 76 332 3.0 6.0 113.58 0.00 0.00 78 1013.9
20260509235920 76 326 3.0 7.0 113.58 0.00 0.00 78 1013.7
20260509235420 76 321 2.0 5.0 113.58 0.00 0.00 78 1013.8
20260509234920 76 332 3.0 6.0 113.58 0.00 0.00 78 1013.8
20260509234420 76 3 3.0 6.0 113.58 0.00 0.00 77 1013.7
20260509233920 76 13 3.0 7.0 113.58 0.00 0.00 77 1013.7
20260509233420 76 309 2.0 4.0 113.58 0.00 0.00 77 1013.5
20260509232920 76 350 3.0 8.0 113.58 0.00 0.00 77 1013.6
20260509232420 76 347 3.0 9.0 113.58 0.00 0.00 77 1013.7
20260509231921 77 335 3.0 9.0 113.58 0.00 0.00 76 1013.8
20260509231420 77 15 3.0 10.0 113.58 0.00 0.00 76 1013.9
20260509230920 77 340 3.0 10.0 113.58 0.00 0.00 76 1013.8
20260509230420 77 328 3.0 9.0 113.58 0.00 0.00 77 1013.8
20260509225920 77 304 2.0 6.0 113.58 0.00 0.00 77 1013.9
20260509225421 77 335 2.0 6.0 113.58 0.00 0.00 77 1013.8
20260509224920 78 335 3.0 9.0 113.58 0.00 0.00 76 1013.7
20260509224420 78 345 4.0 12.0 113.58 0.00 0.00 76 1013.6
20260509223920 79 322 4.0 10.0 113.58 0.00 0.00 75 1013.6
20260509222921 81 328 4.0 10.0 113.58 0.00 0.00 70 1013.6
20260509222420 82 3 3.0 11.0 113.58 0.00 0.00 66 1013.4
20260509221920 82 338 2.0 9.0 113.58 0.00 0.00 64 1013.2
20260509221420 83 322 1.0 3.0 113.58 0.00 0.00 64 1013.1
20260509220920 83 329 1.0 5.0 113.58 0.00 0.00 64 1013.1
20260509220420 83 323 2.0 10.0 113.58 0.00 0.00 63 1013.1
20260509215920 83 335 1.0 5.0 113.58 0.00 0.00 62 1013.0
20260509215420 83 350 1.0 3.0 113.58 0.00 0.00 62 1013.0
20260509214920 83 328 3.0 12.0 113.58 0.00 0.00 62 1013.0
20260509214420 83 339 2.0 7.0 113.58 0.00 0.00 62 1012.9
20260509213920 83 319 1.0 4.0 113.58 0.00 0.00 62 1012.8
20260509213420 83 318 1.0 7.0 113.58 0.00 0.00 62 1012.7
20260509212920 84 333 1.0 5.0 113.58 0.00 0.00 62 1012.7
20260509212420 83 323 1.0 5.0 113.58 0.00 0.00 63 1012.6
20260509211921 83 328 4.0 10.0 113.58 0.00 0.00 62 1012.6
20260509211420 84 353 2.0 6.0 113.58 0.00 0.00 62 1012.5
20260509210920 84 329 4.0 10.0 113.58 0.00 0.00 62 1012.4
20260509210422 84 336 1.0 8.0 113.58 0.00 0.00 62 1012.4
20260509205920 84 330 1.0 5.0 113.58 0.00 0.00 62 1012.4
20260509205420 84 353 2.0 8.0 113.58 0.00 0.00 60 1012.4
20260509204920 85 312 2.0 6.0 113.58 0.00 0.00 60 1012.3
20260509204420 85 180 2.0 6.0 113.58 0.00 0.00 59 1012.4
20260509203920 85 318 2.0 6.0 113.58 0.00 0.00 60 1012.5
20260509203420 85 350 2.0 4.0 113.58 0.00 0.00 61 1012.4
20260509202921 85 326 3.0 10.0 113.58 0.00 0.00 60 1012.4
20260509202421 85 316 2.0 5.0 113.58 0.00 0.00 60 1012.4
20260509201921 85 214 2.0 5.0 113.58 0.00 0.00 60 1012.4
20260509201420 85 201 2.0 9.0 113.58 0.00 0.00 60 1012.4
20260509200920 85 221 2.0 3.0 113.58 0.00 0.00 59 1012.4
20260509200420 85 235 2.0 5.0 113.58 0.00 0.00 57 1012.5
20260509195920 85 214 1.0 5.0 113.58 0.00 0.00 56 1012.5
20260509195420 86 219 1.0 6.0 113.58 0.00 0.00 56 1012.4
20260509194920 86 231 1.0 4.0 113.58 0.00 0.00 55 1012.5
20260509194420 86 198 2.0 7.0 113.58 0.00 0.00 53 1012.5
20260509193920 86 218 2.0 8.0 113.58 0.00 0.00 53 1012.4
20260509193421 86 253 2.0 4.0 113.58 0.00 0.00 53 1012.3
20260509192921 86 205 3.0 6.0 113.58 0.00 0.00 53 1012.3
20260509192420 86 228 3.0 9.0 113.58 0.00 0.00 53 1012.4
20260509191921 86 284 2.0 6.0 113.58 0.00 0.00 54 1012.6
20260509191420 86 228 3.0 7.0 113.58 0.00 0.00 54 1012.8
20260509190921 86 221 2.0 10.0 113.58 0.00 0.00 57 1012.8
20260509190420 86 245 2.0 7.0 113.58 0.00 0.00 56 1012.9
20260509185920 86 221 2.0 6.0 113.58 0.00 0.00 57 1012.9
20260509185421 86 225 2.0 5.0 113.58 0.00 0.00 56 1012.8
20260509184920 86 212 2.0 6.0 113.58 0.00 0.00 55 1012.8
20260509184420 87 250 2.0 7.0 113.58 0.00 0.00 55 1012.7
20260509183920 87 246 1.0 4.0 113.58 0.00 0.00 54 1012.9
20260509183420 87 226 4.0 8.0 113.58 0.00 0.00 53 1012.9
20260509182920 87 242 3.0 8.0 113.58 0.00 0.00 53 1012.8
20260509182420 87 198 4.0 9.0 113.58 0.00 0.00 52 1012.9
20260509181920 87 187 3.0 9.0 113.58 0.00 0.00 52 1012.9
20260509181421 87 242 3.0 7.0 113.58 0.00 0.00 51 1012.9
20260509180921 86 226 3.0 6.0 113.58 0.00 0.00 54 1012.9
20260509180420 85 347 2.0 6.0 113.58 0.00 0.00 58 1013.0
20260509175921 84 205 3.0 7.0 113.58 0.00 0.00 61 1013.1
20260509175421 84 204 2.0 3.0 113.58 0.00 0.00 66 1013.1
20260509174920 84 222 2.0 4.0 113.58 0.00 0.00 67 1013.2
20260509174420 84 221 3.0 5.0 113.58 0.00 0.00 66 1013.2
20260509173920 85 218 6.0 11.0 113.58 0.00 0.00 64 1013.3
20260509173420 86 236 3.0 10.0 113.58 0.00 0.00 62 1013.4
20260509172920 87 195 2.0 6.0 113.58 0.00 0.00 59 1013.4
20260509172424 88 269 1.0 4.0 113.58 0.00 0.00 56 1013.4
20260509171920 88 207 3.0 9.0 113.58 0.00 0.00 53 1013.2
20260509171420 89 211 3.0 9.0 113.58 0.00 0.00 53 1013.3
20260509170920 89 186 3.0 8.0 113.58 0.00 0.00 52 1013.3
20260509170420 89 269 2.0 4.0 113.58 0.00 0.00 54 1013.3
20260509165920 89 243 2.0 5.0 113.58 0.00 0.00 54 1013.4
20260509165420 88 231 2.0 5.0 113.58 0.00 0.00 56 1013.5
20260509164920 88 219 2.0 8.0 113.58 0.00 0.00 55 1013.7
20260509164420 88 238 1.0 5.0 113.58 0.00 0.00 56 1013.7
20260509163920 88 228 1.0 7.0 113.58 0.00 0.00 58 1013.7
20260509163420 87 215 3.0 8.0 113.58 0.00 0.00 58 1013.7
20260509162920 87 173 3.0 6.0 113.58 0.00 0.00 57 1013.8
20260509162420 87 336 1.0 5.0 113.58 0.00 0.00 59 1013.7
20260509161920 86 173 2.0 5.0 113.58 0.00 0.00 61 1013.7
20260509161422 86 217 5.0 10.0 113.58 0.00 0.00 61 1013.7
20260509160920 85 221 5.0 11.0 113.58 0.00 0.00 60 1013.8